| time (UTC) | temp F | wind direction | speed knots | gust knots | rain 1hr in | rain 24hr in | rain mn in | humidity % | barometer mb |
| 20260509195023 | 78 | 348 | 4.3 | 8.7 | 0.00 | 0.00 | 0.00 | 12 | 1019.4 |
| 20260509194536 | 78 | 108 | 2.6 | 8.7 | 0.00 | 0.00 | 0.00 | 12 | 1019.2 |
| 20260509194010 | 78 | 71 | 3.5 | 9.6 | 0.00 | 0.00 | 0.00 | 12 | 1019.4 |
| 20260509193524 | 78 | 348 | 3.5 | 9.6 | 0.00 | 0.00 | 0.00 | 13 | 1019.3 |
| 20260509193017 | 78 | 9 | 1.7 | 7.8 | 0.00 | 0.00 | 0.00 | 12 | 1019.3 |
| 20260509192514 | 78 | 298 | 4.3 | 7.8 | 0.00 | 0.00 | 0.00 | 12 | 1019.3 |
| 20260509192028 | 77 | 291 | 2.6 | 11.3 | 0.00 | 0.00 | 0.00 | 13 | 1019.4 |
| 20260509191542 | 77 | 138 | 2.6 | 7.8 | 0.00 | 0.00 | 0.00 | 12 | 1019.4 |
| 20260509191011 | 77 | 257 | 4.3 | 11.3 | 0.00 | 0.00 | 0.00 | 12 | 1019.4 |
| 20260509190524 | 77 | 190 | 3.5 | 11.3 | 0.00 | 0.00 | 0.00 | 12 | 1019.4 |
| 20260509190017 | 77 | 142 | 2.6 | 7.8 | 0.00 | 0.00 | 0.00 | 13 | 1019.5 |
| 20260509185531 | 77 | 35 | 3.5 | 7.0 | 0.00 | 0.00 | 0.00 | 12 | 1019.7 |
| 20260509185024 | 77 | 13 | 1.7 | 13.9 | 0.00 | 0.00 | 0.00 | 13 | 1019.5 |
| 20260509184518 | 76 | 180 | 5.2 | 13.9 | 0.00 | 0.00 | 0.00 | 12 | 1019.5 |
| 20260509184013 | 76 | 266 | 1.7 | 7.8 | 0.00 | 0.00 | 0.00 | 13 | 1019.6 |
| 20260509183531 | 76 | 219 | 2.6 | 7.8 | 0.00 | 0.00 | 0.00 | 13 | 1019.7 |
| 20260509183024 | 75 | 331 | 2.6 | 7.8 | 0.00 | 0.00 | 0.00 | 13 | 1019.8 |
| 20260509182518 | 74 | 161 | 3.5 | 10.4 | 0.00 | 0.00 | 0.00 | 13 | 1019.9 |
| 20260509182011 | 74 | 81 | 4.3 | 10.4 | 0.00 | 0.00 | 0.00 | 13 | 1019.9 |
| 20260509181524 | 73 | 126 | 2.6 | 6.1 | 0.00 | 0.00 | 0.00 | 14 | 1020.1 |
| 20260509181018 | 74 | 49 | 3.5 | 7.0 | 0.00 | 0.00 | 0.00 | 13 | 1020.0 |
| 20260509180513 | 73 | 257 | 1.7 | 6.1 | 0.00 | 0.00 | 0.00 | 13 | 1020.2 |
| 20260509180028 | 73 | 340 | 3.5 | 6.1 | 0.00 | 0.00 | 0.00 | 13 | 1020.4 |
| 20260509175523 | 73 | 54 | 1.7 | 9.6 | 0.00 | 0.00 | 0.00 | 13 | 1020.3 |
| 20260509175017 | 73 | 44 | 6.1 | 9.6 | 0.00 | 0.00 | 0.00 | 13 | 1020.6 |
| 20260509174511 | 73 | 327 | 1.7 | 7.0 | 0.00 | 0.00 | 0.00 | 13 | 1020.5 |
| 20260509174025 | 73 | 302 | 2.6 | 7.0 | 0.00 | 0.00 | 0.00 | 14 | 1020.4 |
| 20260509173518 | 73 | 346 | 4.3 | 8.7 | 0.00 | 0.00 | 0.00 | 14 | 1020.4 |
| 20260509173033 | 73 | 82 | 3.5 | 9.6 | 0.00 | 0.00 | 0.00 | 13 | 1020.6 |
| 20260509172544 | 73 | 124 | 2.6 | 9.6 | 0.00 | 0.00 | 0.00 | 14 | 1020.5 |
| 20260509172017 | 73 | 39 | 3.5 | 16.5 | 0.00 | 0.00 | 0.00 | 14 | 1020.6 |
| 20260509171511 | 73 | 43 | 4.3 | 9.6 | 0.00 | 0.00 | 0.00 | 14 | 1020.6 |
| 20260509171028 | 73 | 304 | 1.7 | 13.9 | 0.00 | 0.00 | 0.00 | 14 | 1020.6 |
| 20260509170522 | 72 | 64 | 7.8 | 13.9 | 0.00 | 0.00 | 0.00 | 13 | 1020.5 |
| 20260509170016 | 73 | 58 | 2.6 | 7.0 | 0.00 | 0.00 | 0.00 | 14 | 1021.0 |
| 20260509165509 | 73 | 208 | 3.5 | 7.0 | 0.00 | 0.00 | 0.00 | 14 | 1020.7 |
| 20260509165023 | 74 | 309 | 3.5 | 7.0 | 0.00 | 0.00 | 0.00 | 14 | 1020.8 |
| 20260509164528 | 74 | 250 | 3.5 | 10.4 | 0.00 | 0.00 | 0.00 | 17 | 1020.6 |
| 20260509164013 | 73 | 150 | 5.2 | 10.4 | 0.00 | 0.00 | 0.00 | 17 | 1020.5 |
| 20260509163528 | 72 | 145 | 3.5 | 9.6 | 0.00 | 0.00 | 0.00 | 18 | 1020.6 |
| 20260509163021 | 72 | 59 | 3.5 | 9.6 | 0.00 | 0.00 | 0.00 | 19 | 1020.8 |
| 20260509162535 | 72 | 159 | 3.5 | 10.4 | 0.00 | 0.00 | 0.00 | 17 | 1020.7 |
| 20260509162025 | 72 | 350 | 3.5 | 11.3 | 0.00 | 0.00 | 0.00 | 16 | 1020.8 |
| 20260509161522 | 72 | 55 | 3.5 | 11.3 | 0.00 | 0.00 | 0.00 | 15 | 1020.7 |
| 20260509161017 | 71 | 300 | 3.5 | 8.7 | 0.00 | 0.00 | 0.00 | 16 | 1020.6 |
| 20260509160510 | 71 | 280 | 4.3 | 8.7 | 0.00 | 0.00 | 0.00 | 15 | 1020.8 |
| 20260509160024 | 71 | 91 | 2.6 | 7.0 | 0.00 | 0.00 | 0.00 | 17 | 1020.6 |
| 20260509155517 | 70 | 360 | 2.6 | 10.4 | 0.00 | 0.00 | 0.00 | 19 | 1020.7 |
| 20260509155010 | 70 | 210 | 4.3 | 10.4 | 0.00 | 0.00 | 0.00 | 17 | 1020.6 |
| 20260509154524 | 70 | 45 | 2.6 | 4.3 | 0.00 | 0.00 | 0.00 | 19 | 1020.7 |
| 20260509154021 | 69 | 89 | 2.6 | 7.0 | 0.00 | 0.00 | 0.00 | 20 | 1020.6 |
| 20260509153514 | 69 | 178 | 1.7 | 7.0 | 0.00 | 0.00 | 0.00 | 22 | 1020.6 |
| 20260509153028 | 68 | 308 | 1.7 | 6.1 | 0.00 | 0.00 | 0.00 | 22 | 1020.6 |
| 20260509152522 | 67 | 126 | 0.9 | 7.8 | 0.00 | 0.00 | 0.00 | 23 | 1020.7 |
| 20260509152015 | 67 | 83 | 0.9 | 3.5 | 0.00 | 0.00 | 0.00 | 24 | 1020.6 |
| 20260509151528 | 67 | 49 | 0.9 | 2.6 | 0.00 | 0.00 | 0.00 | 25 | 1020.8 |
| 20260509151022 | 66 | 46 | 0.9 | 5.2 | 0.00 | 0.00 | 0.00 | 24 | 1020.8 |
| 20260509150515 | 66 | 146 | 0.9 | 5.2 | 0.00 | 0.00 | 0.00 | 24 | 1020.9 |
| 20260509150048 | 66 | 49 | 2.6 | 3.5 | 0.00 | 0.00 | 0.00 | 25 | 1020.9 |
| 20260509145521 | 66 | 155 | 0.9 | 4.3 | 0.00 | 0.00 | 0.00 | 26 | 1020.9 |
| 20260509145019 | 66 | 155 | 3.5 | 5.2 | 0.00 | 0.00 | 0.00 | 25 | 1020.9 |
| 20260509144514 | 66 | 129 | 1.7 | 3.5 | 0.00 | 0.00 | 0.00 | 26 | 1021.0 |
| 20260509144010 | 65 | 53 | 1.7 | 2.6 | 0.00 | 0.00 | 0.00 | 27 | 1021.1 |
| 20260509143545 | 64 | 151 | 0.9 | 4.3 | 0.00 | 0.00 | 0.00 | 27 | 1020.9 |
| 20260509143011 | 63 | 136 | 1.7 | 4.3 | 0.00 | 0.00 | 0.00 | 27 | 1020.9 |
| 20260509033126 | 64 | 5 | 2.6 | 3.5 | 0.00 | 0.00 | 0.00 | 23 | 1019.4 |
| 20260509032639 | 64 | 313 | 0.0 | 0.0 | 0.00 | 0.00 | 0.00 | 22 | 1019.4 |
| 20260509032134 | 64 | 313 | 0.0 | 0.0 | 0.00 | 0.00 | 0.00 | 23 | 1019.3 |
| 20260509031647 | 65 | 313 | 0.0 | 0.0 | 0.00 | 0.00 | 0.00 | 22 | 1019.3 |
| 20260509031139 | 65 | 313 | 0.0 | 0.9 | 0.00 | 0.00 | 0.00 | 22 | 1019.2 |
| 20260509030633 | 66 | 293 | 0.0 | 3.5 | 0.00 | 0.00 | 0.00 | 21 | 1019.2 |
| 20260509030131 | 66 | 328 | 1.7 | 3.5 | 0.00 | 0.00 | 0.00 | 21 | 1019.2 |
| 20260509025624 | 66 | 335 | 0.9 | 3.5 | 0.00 | 0.00 | 0.00 | 21 | 1019.1 |
| 20260509025137 | 66 | 343 | 0.9 | 2.6 | 0.00 | 0.00 | 0.00 | 21 | 1019.0 |
| 20260509024632 | 66 | 326 | 0.9 | 5.2 | 0.00 | 0.00 | 0.00 | 20 | 1018.9 |
| 20260509024125 | 67 | 263 | 1.7 | 5.2 | 0.00 | 0.00 | 0.00 | 20 | 1018.9 |
| 20260509023637 | 67 | 315 | 1.7 | 7.0 | 0.00 | 0.00 | 0.00 | 20 | 1018.9 |
| 20260509023151 | 67 | 51 | 1.7 | 7.0 | 0.00 | 0.00 | 0.00 | 20 | 1018.8 |
| 20260509022625 | 67 | 350 | 2.6 | 7.0 | 0.00 | 0.00 | 0.00 | 19 | 1018.7 |
| 20260509022123 | 67 | 78 | 1.7 | 7.0 | 0.00 | 0.00 | 0.00 | 20 | 1018.6 |
| 20260509021637 | 67 | 29 | 2.6 | 6.1 | 0.00 | 0.00 | 0.00 | 19 | 1018.5 |
| 20260509021132 | 67 | 14 | 1.7 | 3.5 | 0.00 | 0.00 | 0.00 | 19 | 1018.5 |
| 20260509020626 | 68 | 327 | 0.9 | 2.6 | 0.00 | 0.00 | 0.00 | 20 | 1018.4 |
| 20260509020139 | 68 | 15 | 0.0 | 2.6 | 0.00 | 0.00 | 0.00 | 19 | 1018.3 |
| 20260509015634 | 68 | 333 | 1.7 | 2.6 | 0.00 | 0.00 | 0.00 | 19 | 1018.2 |
| 20260509015126 | 68 | 21 | 0.9 | 3.5 | 0.00 | 0.00 | 0.00 | 18 | 1018.1 |
| 20260509014641 | 68 | 341 | 0.9 | 6.1 | 0.00 | 0.00 | 0.00 | 18 | 1018.1 |
| 20260509014138 | 68 | 355 | 2.6 | 6.1 | 0.00 | 0.00 | 0.00 | 18 | 1018.0 |
| 20260509013633 | 69 | 96 | 0.9 | 1.7 | 0.00 | 0.00 | 0.00 | 17 | 1018.0 |
| 20260509013127 | 70 | 265 | 0.0 | 1.7 | 0.00 | 0.00 | 0.00 | 17 | 1017.9 |
| 20260509012641 | 70 | 265 | 0.0 | 2.6 | 0.00 | 0.00 | 0.00 | 16 | 1017.7 |
| 20260509012154 | 70 | 265 | 0.0 | 3.5 | 0.00 | 0.00 | 0.00 | 16 | 1017.7 |
| 20260509011626 | 71 | 101 | 0.9 | 3.5 | 0.00 | 0.00 | 0.00 | 16 | 1017.6 |
| 20260509011140 | 71 | 94 | 0.9 | 3.5 | 0.00 | 0.00 | 0.00 | 16 | 1017.6 |
| 20260509010634 | 71 | 33 | 0.9 | 3.5 | 0.00 | 0.00 | 0.00 | 16 | 1017.7 |
| 20260509010133 | 71 | 19 | 1.7 | 3.5 | 0.00 | 0.00 | 0.00 | 15 | 1017.6 |
| 20260509005627 | 72 | 351 | 1.7 | 2.6 | 0.00 | 0.00 | 0.00 | 15 | 1017.6 |
| 20260509005141 | 72 | 246 | 0.9 | 4.3 | 0.00 | 0.00 | 0.00 | 15 | 1017.6 |
| 20260509004634 | 72 | 320 | 2.6 | 4.3 | 0.00 | 0.00 | 0.00 | 15 | 1017.6 |
| 20260509004146 | 72 | 78 | 1.7 | 8.7 | 0.00 | 0.00 | 0.00 | 15 | 1017.5 |
| 20260509003640 | 72 | 60 | 2.6 | 8.7 | 0.00 | 0.00 | 0.00 | 14 | 1017.5 |
| 20260509003134 | 73 | 329 | 1.7 | 5.2 | 0.00 | 0.00 | 0.00 | 15 | 1017.6 |
| 20260509002648 | 73 | 323 | 0.9 | 7.0 | 0.00 | 0.00 | 0.00 | 15 | 1017.5 |
| 20260509002141 | 73 | 41 | 2.6 | 7.0 | 0.00 | 0.00 | 0.00 | 15 | 1017.6 |
| 20260509001655 | 74 | 42 | 1.7 | 4.3 | 0.00 | 0.00 | 0.00 | 15 | 1017.6 |
| 20260509001131 | 74 | 311 | 1.7 | 5.2 | 0.00 | 0.00 | 0.00 | 15 | 1017.6 |
| 20260509000625 | 75 | 17 | 1.7 | 5.2 | 0.00 | 0.00 | 0.00 | 15 | 1017.5 |
| 20260509000200 | 75 | 324 | 1.7 | 7.0 | 0.00 | 0.00 | 0.00 | 15 | 1017.4 |
| 20260508235653 | 74 | 236 | 1.7 | 7.0 | 0.00 | 0.00 | 0.00 | 14 | 1017.4 |
| 20260508235126 | 74 | 240 | 1.7 | 7.0 | 0.00 | 0.00 | 0.00 | 14 | 1017.4 |
| 20260508234700 | 74 | 328 | 2.6 | 7.0 | 0.00 | 0.00 | 0.00 | 15 | 1017.5 |
| 20260508234133 | 74 | 229 | 2.6 | 4.3 | 0.00 | 0.00 | 0.00 | 14 | 1017.3 |
| 20260508233627 | 74 | 202 | 2.6 | 6.1 | 0.00 | 0.00 | 0.00 | 15 | 1017.5 |
| 20260508233141 | 74 | 258 | 1.7 | 6.1 | 0.00 | 0.00 | 0.00 | 16 | 1017.3 |
| 20260508232635 | 74 | 203 | 2.6 | 6.1 | 0.00 | 0.00 | 0.00 | 16 | 1017.4 |
| 20260508232132 | 74 | 115 | 2.6 | 6.1 | 0.00 | 0.00 | 0.00 | 16 | 1017.3 |
| 20260508231627 | 74 | 154 | 2.6 | 6.1 | 0.00 | 0.00 | 0.00 | 16 | 1017.3 |
| 20260508231141 | 74 | 252 | 0.9 | 2.6 | 0.00 | 0.00 | 0.00 | 16 | 1017.2 |
| 20260508230655 | 74 | 122 | 0.9 | 2.6 | 0.00 | 0.00 | 0.00 | 16 | 1017.2 |
| 20260508230128 | 74 | 158 | 0.0 | 3.5 | 0.00 | 0.00 | 0.00 | 16 | 1017.2 |
| 20260508225640 | 74 | 142 | 1.7 | 3.5 | 0.00 | 0.00 | 0.00 | 16 | 1017.2 |
| 20260508225134 | 74 | 146 | 1.7 | 3.5 | 0.00 | 0.00 | 0.00 | 17 | 1017.2 |
| 20260508224627 | 74 | 340 | 0.9 | 4.3 | 0.00 | 0.00 | 0.00 | 17 | 1017.3 |
| 20260508224125 | 74 | 150 | 1.7 | 4.3 | 0.00 | 0.00 | 0.00 | 17 | 1017.4 |
| 20260508223640 | 73 | 127 | 0.9 | 4.3 | 0.00 | 0.00 | 0.00 | 17 | 1017.4 |
| 20260508223153 | 72 | 341 | 1.7 | 4.3 | 0.00 | 0.00 | 0.00 | 17 | 1017.4 |
| 20260508222625 | 72 | 149 | 1.7 | 2.6 | 0.00 | 0.00 | 0.00 | 17 | 1017.6 |
| 20260508222139 | 72 | 86 | 0.0 | 3.5 | 0.00 | 0.00 | 0.00 | 17 | 1017.6 |
| 20260508221653 | 72 | 86 | 1.7 | 3.5 | 0.00 | 0.00 | 0.00 | 17 | 1017.6 |
| 20260508221125 | 73 | 128 | 0.9 | 6.1 | 0.00 | 0.00 | 0.00 | 17 | 1017.7 |
| 20260508220639 | 73 | 97 | 2.6 | 6.1 | 0.00 | 0.00 | 0.00 | 16 | 1017.6 |
| 20260508220151 | 74 | 161 | 1.7 | 6.1 | 0.00 | 0.00 | 0.00 | 16 | 1017.7 |
| 20260508215645 | 74 | 120 | 1.7 | 10.4 | 0.00 | 0.00 | 0.00 | 16 | 1017.8 |
| 20260508215157 | 75 | 157 | 0.9 | 7.8 | 0.00 | 0.00 | 0.00 | 17 | 1017.8 |
| 20260508214649 | 74 | 150 | 2.6 | 5.2 | 0.00 | 0.00 | 0.00 | 17 | 1017.8 |
| 20260508214125 | 74 | 152 | 0.9 | 4.3 | 0.00 | 0.00 | 0.00 | 16 | 1017.8 |
| 20260508213636 | 75 | 87 | 0.9 | 6.1 | 0.00 | 0.00 | 0.00 | 17 | 1017.8 |
| 20260508213131 | 75 | 86 | 1.7 | 7.8 | 0.00 | 0.00 | 0.00 | 17 | 1017.8 |
| 20260508212644 | 74 | 74 | 1.7 | 7.8 | 0.00 | 0.00 | 0.00 | 16 | 1017.8 |
| 20260508212137 | 74 | 340 | 0.9 | 6.1 | 0.00 | 0.00 | 0.00 | 17 | 1018.0 |
| 20260508211630 | 75 | 327 | 1.7 | 3.5 | 0.00 | 0.00 | 0.00 | 16 | 1017.9 |
| 20260508211124 | 75 | 5 | 1.7 | 5.2 | 0.00 | 0.00 | 0.00 | 16 | 1018.0 |
| 20260508210657 | 75 | 247 | 1.7 | 5.2 | 0.00 | 0.00 | 0.00 | 16 | 1018.1 |
| 20260508210130 | 76 | 318 | 1.7 | 6.1 | 0.00 | 0.00 | 0.00 | 16 | 1018.2 |
| 20260508205627 | 76 | 355 | 1.7 | 6.1 | 0.00 | 0.00 | 0.00 | 17 | 1018.2 |
| 20260508205141 | 75 | 59 | 1.7 | 7.8 | 0.00 | 0.00 | 0.00 | 17 | 1018.2 |
| 20260508204634 | 75 | 63 | 3.5 | 7.8 | 0.00 | 0.00 | 0.00 | 16 | 1018.2 |
| 20260508204148 | 75 | 152 | 2.6 | 6.1 | 0.00 | 0.00 | 0.00 | 16 | 1018.3 |
| 20260508203641 | 76 | 261 | 1.7 | 6.1 | 0.00 | 0.00 | 0.00 | 16 | 1018.5 |
| 20260508203134 | 75 | 101 | 1.7 | 4.3 | 0.00 | 0.00 | 0.00 | 16 | 1018.5 |
| 20260508202627 | 74 | 154 | 2.6 | 8.7 | 0.00 | 0.00 | 0.00 | 17 | 1018.5 |
| 20260508202140 | 74 | 294 | 4.3 | 8.7 | 0.00 | 0.00 | 0.00 | 17 | 1018.7 |
| 20260508201634 | 74 | 107 | 1.7 | 8.7 | 0.00 | 0.00 | 0.00 | 17 | 1018.7 |
| 20260508201132 | 74 | 149 | 3.5 | 8.7 | 0.00 | 0.00 | 0.00 | 16 | 1018.8 |
| 20260508200625 | 74 | 130 | 3.5 | 8.7 | 0.00 | 0.00 | 0.00 | 16 | 1018.8 |
| 20260508200159 | 73 | 157 | 1.7 | 7.0 | 0.00 | 0.00 | 0.00 | 17 | 1018.8 |
| 20260508195631 | 74 | 31 | 1.7 | 8.7 | 0.00 | 0.00 | 0.00 | 17 | 1019.0 |
| 20260508195125 | 73 | 155 | 2.6 | 8.7 | 0.00 | 0.00 | 0.00 | 17 | 1019.0 |